SCP
0 0 0 0 0 0 0 0 0 0 0 0 0 0 0 0 0 0 0 0 0 0 0 0 0 0 0 0 0 0 0 0 0 0 0 0 0 0 0 0 0 0 0 0 0 0 0 0 0
0 0 0 0 0 0 0 0 0 0 0 0 0 0 0 0 0 0 0 0 0 0 0 0 0 0 0 0 0 0 0 0 0 0 0 0 0 0 0 0 0 0 0 0 0 0 0 0 0
0 0 0 0 0 0 0 0 0 0 0 0 0 0 0 0 0 0 0 0 0 0 0 0 1 0 0 0 0 0 0 0 0 0 0 0 0 0 0 0 0 0 0 0 0 0 0 0 0
0 0 0 0 0 0 0 0 0 0 0 0 0 0 0 0 0 0 0 0 0 0 0 0 0 0 0 0 0 0 0 0 0 0 0 0 0 0 0 0 0 0 0 0 0 0 0 0 0
0 0 0 0 0 0 0 0 0 0 0 0 0 0 0 0 0 0 0 0 0 0 0 0 0 0 0 0 0 0 0 0 0 0 0 0 0 0 0 0 0 0 0 0 0 0 0 0 0
0 0 0 0 0 0 0 0 0 0 0 0 0 0 0 0 0 0 0 0 0 0 0 0 0 0 0 0 0 0 0 0 0 0 0 0 0 0 0 0 0 0 0 0 0 0 0 0 0
0 0 0 0 0 0 0 0 0 0 0 0 0 0 0 0 0 0 0 0 0 0 0 0 0 0 0 0 0 0 0 0 0 0 0 0 0 0 0 0 0 0 0 0 0 0 0 0 0
0 0 0 0 0 0 0 0 0 0 0 0 0 0 0 0 0 0 0 0 0 0 0 0 0 0 0 0 0 0 0 0 0 0 0 0 0 0 0 0 0 0 0 0 0 0 0 0 0
0 0 0 0 0 0 0 0 0 0 0 0 0 0 0 0 0 0 0 0 0 0 0 0 0 0 0 0 0 0 0 0 0 0 0 0 0 0 0 0 0 0 0 0 0 0 0 0 0
0 0 0 0 0 0 0 0 0 0 0 0 0 0 0 0 0 0 0 0 0 0 0 0 0 0 0 0 0 0 0 0 0 0 0 0 0 0 0 0 0 0 0 0 0 0 0 0 0
0 0 0 0 0 0 0 0 0 0 0 0 0 0 0 0 0 0 0 0 0 0 0 0 0 0 0 0 0 0 0 0 0 0 0 0 0 0 0 0 0 0 0 0 0 0 0 0 0
0 0 0 0 0 0 0 0 0 0 0 0 0 0 0 0 0 0 0 0 0 0 0 0 0 0 0 0 0 0 0 0 0 0 0 0 0 0 0 0 0 0 0 0 0 0 0 0 0
0 0 0 0 0 0 0 0 0 0 0 0 0 0 0 0 0 0 0 0 0 0 0 0 0 0 0 0 0 0 0 0 0 0 0 0 0 0 0 0 0 0 0 0 0 0 0 0 0
0 0 0 0 0 0 0 0 0 0 0 0 0 0 0 0 0 0 0 0 0 0 0 0 0 0 0 0 0 0 0 0 0 0 0 0 0 0 0 0 0 0 0 0 0 0 0 0 0
0 0 0 0 0 0 0 0 0 0 0 0 0 0 0 0 0 0 0 0 0 0 0 0 0 0 0 0 0 0 0 0 0 0 0 0 0 0 0 0 0 0 0 0 0 0 0 0 0
0 0 0 0 0 0 0 0 0 0 0 0 0 0 0 0 0 0 0 0 0 0 0 0 0 0 0 0 0 0 0 0 0 0 0 0 0 0 0 0 0 0 0 0 0 0 0 0 0
0 0 0 0 0 0 0 0 0 0 0 0 0 0 0 0 0 0 0 0 0 0 0 0 0 0 0 0 0 0 0 0 0 0 0 0 0 0 0 0 0 0 0 0 0 0 0 0 0
0 0 0 0 0 0 0 0 0 0 0 0 0 0 0 0 0 0 0 0 0 0 0 0 0 0 0 0 0 0 0 0 0 0 0 0 0 0 0 0 0 0 0 0 0 0 0 0 0
0 0 0 0 0 0 0 0 0 0 0 0 0 0 0 0 0 0 0 0 0 0 0 0 0 0 0 0 0 0 0 0 0 0 0 0 0 0 0 0 0 0 0 0 0 0 0 0 0
0 0 0 0 0 0 0 0 0 0 0 0 0 0 0 0 0 0 0 0 0 0 0 0 0 0 0 0 0 0 0 0 0 0 0 0 0 0 0 0 0 0 0 0 0 0 0 0 0
0 0 0 0 0 0 0 0 0 0 0 0 0 0 0 0 0 0 0 0 0 0 0 0 0 0 0 0 0 0 0 0 0 0 0 0 0 0 0 0 0 0 0 0 0 0 0 0 0
0 0 0 0 0 0 0 0 0 0 0 0 0 0 0 0 0 0 0 0 0 0 0 0 0 0 0 0 0 0 0 0 0 0 0 0 0 0 0 0 0 0 0 0 0 0 0 0 0
0 0 0 0 0 0 0 0 0 0 0 0 0 0 0 0 0 0 0 0 0 0 0 0 0 0 0 0 0 0 0 0 0 0 0 0 0 0 0 0 0 0 0 0 0 0 0 0 0
0 0 0 0 0 0 0 0 0 0 0 0 0 0 0 0 0 0 0 0 0 0 0 0 0 0 0 0 0 0 0 0 0 0 0 0 0 0 0 0 0 0 0 0 0 0 0 0 0
0 0 0 0 0 0 0 0 0 0 0 0 0 0 0 0 0 0 0 0 0 0 0 0 0 0 0 0 0 0 0 0 0 0 0 0 0 0 0 0 0 0 0 0 0 0 0 0 0
0 0 0 0 0 0 0 0 0 0 0 0 0 0 0 0 0 0 0 0 0 0 0 0 0 0 0 0 0 0 0 0 0 0 0 0 0 0 0 0 0 0 0 0 0 0 0 0 0
0 0 0 0 0 0 0 0 0 0 0 0 0 0 0 0 0 0 0 0 0 0 0 0 0 0 0 0 0 0 0 0 0 0 0 0 0 0 0 0 0 0 0 0 0 0 0 0 0
0 0 0 0 0 0 0 0 0 0 0 0 0 0 0 0 0 0 0 0 0 0 0 0 0 0 0 0 0 0 0 0 0 0 0 0 0 0 0 0 0 0 0 0 0 0 0 0 0
0 0 0 0 0 0 0 0 0 0 0 0 0 0 0 0 0 0 0 0 0 0 0 0 0 0 0 0 0 0 0 0 0 0 0 0 0 0 0 0 0 0 0 0 0 0 0 0 0
0 0 0 0 0 0 0 0 0 0 0 0 0 0 0 0 0 0 0 0 0 0 0 0 0 0 0 0 0 0 0 0 0 0 0 0 0 0 0 0 0 0 0 0 0 0 0 0 0
Wind_Speed
1 2 3 4 6 7 10 7 5 6 5 2 1 2 3 2 1 5 5 4 3 3 4 7 6 6 7 7 7 7 7 7 7 8 8 8 8 7 7 7 7 7 6 7 7 7 7 7 7
2 3 4 5 8 10 9 8 8 6 4 4 3 3 3 5 5 6 4 3 2 4 4 6 7 6 6 6 6 6 7 7 7 7 7 7 7 7 7 6 7 6 6 6 7 7 6 7 7
3 3 5 5 8 10 8 7 7 6 5 4 4 2 3 5 4 4 4 2 3 5 5 7 6 6 6 6 6 5 5 5 5 6 6 6 7 7 6 6 6 5 6 6 6 6 6 6 7
4 4 4 6 10 6 3 5 6 8 6 3 5 6 4 5 3 4 3 2 4 5 5 7 6 5 5 5 5 4 4 4 4 5 5 6 6 6 6 5 5 5 6 6 6 7 6 6 7
3 5 7 7 9 6 3 3 6 7 7 5 5 6 6 4 4 4 3 3 4 5 5 6 6 6 5 4 4 4 3 3 3 4 4 5 6 6 5 5 5 5 6 7 7 7 7 7 7
4 4 7 10 9 6 5 3 5 6 6 6 6 6 6 4 4 4 4 4 4 5 4 5 6 6 5 4 3 2 2 2 2 2 3 3 4 5 5 5 6 6 6 7 7 8 7 7 7
4 5 6 9 10 8 5 3 4 6 7 5 3 6 6 4 4 4 4 4 5 5 4 4 3 3 4 4 4 3 2 1 1 1 1 1 2 3 4 5 6 6 6 7 7 8 8 8 7
1 3 5 8 10 7 5 3 3 3 5 3 1 5 6 4 2 3 4 5 6 6 5 4 3 2 1 1 3 2 2 1 1 1 1 2 3 4 5 6 6 6 6 7 7 8 8 8 7
2 3 5 6 7 6 6 5 3 2 5 4 3 4 5 4 3 4 4 5 5 6 5 4 4 3 2 1 1 1 1 0 2 3 3 4 5 5 6 6 4 6 6 6 7 8 7 7 8
1 3 3 2 2 5 6 5 4 5 6 5 5 6 5 4 4 4 4 4 4 5 5 5 4 3 3 2 1 2 1 2 3 3 3 4 4 4 4 4 5 6 6 7 8 8 8 9 7
2 3 4 3 3 4 5 4 2 6 5 4 6 7 5 4 4 3 3 3 4 4 4 5 4 4 3 2 2 2 2 2 3 3 3 4 4 3 4 3 4 6 7 7 7 8 8 7 6
5 4 3 3 2 2 3 4 3 1 3 4 4 5 5 4 3 3 2 3 3 3 4 5 5 4 4 3 2 2 2 2 2 3 4 3 3 4 4 4 4 4 4 5 6 5 7 8 8
6 5 4 4 4 4 4 4 3 3 3 4 5 5 4 3 3 2 2 2 3 3 4 5 5 4 4 3 2 2 2 3 3 3 4 4 4 4 4 4 4 5 4 5 5 6 7 7 8
7 8 6 4 4 2 3 3 3 3 3 4 4 4 3 2 2 1 1 2 3 3 4 4 5 4 4 3 3 3 3 3 3 3 4 5 4 4 4 5 5 5 5 5 6 7 6 6 6
7 8 7 5 3 2 1 2 2 3 4 4 3 3 2 1 1 1 2 2 3 4 4 5 5 5 4 4 4 3 3 3 3 3 3 4 4 4 4 5 5 5 5 6 6 7 6 6 6
4 5 4 3 3 1 3 3 4 4 4 4 3 2 1 0 0 1 2 2 3 3 4 5 4 5 5 4 4 3 3 3 3 3 3 4 4 5 4 4 5 5 5 5 5 5 5 6 6
3 4 4 3 2 1 2 3 5 4 5 4 4 3 3 1 1 1 2 2 3 3 4 4 4 5 4 4 3 3 3 3 3 3 3 4 4 5 4 4 4 5 4 5 5 5 5 6 6
5 5 3 2 2 2 3 4 4 6 6 6 5 5 4 3 2 1 2 2 3 3 4 4 4 5 4 3 3 2 2 2 2 3 3 4 4 4 5 4 5 5 4 5 5 6 6 5 5
5 5 3 2 2 2 4 6 7 6 8 8 7 6 6 4 3 1 2 2 3 3 4 4 4 4 4 3 3 3 3 3 3 3 4 4 4 4 4 4 4 5 5 6 6 5 6 6 4
5 5 2 2 2 2 4 7 7 8 9 8 7 7 6 5 4 2 2 2 3 3 4 4 4 4 4 3 3 3 4 3 3 3 4 4 4 4 4 4 4 5 5 6 6 6 5 4 4
4 2 1 1 1 0 4 6 6 5 6 7 7 7 6 6 5 4 3 3 3 3 4 4 5 5 4 4 3 3 3 3 3 3 3 4 4 4 4 4 4 4 5 5 5 6 6 5 5
3 1 1 0 1 0 2 4 4 4 6 7 7 7 7 6 6 5 4 3 3 3 3 4 4 4 4 3 3 4 4 4 4 4 4 4 4 4 4 4 4 4 4 5 5 5 5 6 5
2 1 1 0 0 2 2 3 5 3 6 7 6 6 6 5 5 5 4 4 3 3 3 3 3 3 4 4 4 4 4 4 4 4 4 4 4 4 4 4 4 4 4 4 5 5 5 5 5
2 2 3 2 2 3 2 4 5 4 4 3 3 4 5 5 5 5 4 3 3 2 2 3 3 4 4 4 4 5 5 5 5 5 4 4 3 3 3 4 4 4 3 4 4 4 5 4 5
0 1 1 2 2 2 2 5 8 4 3 4 4 4 3 4 4 4 4 4 3 3 3 3 4 4 4 4 4 4 5 5 5 5 4 4 3 3 3 3 3 3 3 4 4 4 4 4 4
1 2 2 2 2 1 3 7 5 2 3 4 5 4 4 4 4 4 4 4 4 4 4 4 4 4 4 4 4 4 4 3 3 4 4 4 3 3 4 3 3 3 3 3 3 3 3 3 3
1 1 2 1 1 4 5 5 7 3 4 4 4 4 5 4 4 5 5 5 5 5 5 5 5 5 4 5 4 4 4 3 3 3 3 3 3 3 3 3 3 3 3 3 3 2 3 3 3
2 2 2 2 3 4 4 5 4 3 2 2 3 4 4 4 5 5 5 5 5 5 5 5 5 5 5 5 4 3 4 3 3 3 3 4 4 3 3 3 3 3 3 3 3 3 3 3 3
4 3 2 1 3 4 5 4 2 3 2 3 4 4 5 5 6 6 5 5 5 5 5 5 5 5 5 4 4 4 4 3 3 3 3 3 3 3 3 3 3 3 3 3 2 2 2 3 2
3 4 5 3 3 4 5 7 0 3 3 4 5 5 6 6 6 6 6 5 5 6 5 5 5 5 5 4 4 4 3 3 3 3 3 3 3 3 3 3 2 2 2 2 2 3 3 3 2
Wind_Direction
189 202 202 199 198 213 217 195 187 171 174 163 149 178 164 128 76 91 78 65 58 113 126 128 124 138 141 142 140 140 142 145 148 151 152 153 154 155 151 154 153 151 145 139 134 130 128 126 125
175 182 189 205 215 205 203 191 182 166 143 137 133 140 127 106 56 77 84 46 70 99 113 117 108 122 129 133 137 142 149 151 153 155 157 158 161 162 161 161 159 158 151 145 139 135 135 136 136
161 204 197 198 217 214 185 173 172 141 137 156 137 102 82 90 71 67 40 50 94 95 93 95 95 111 121 123 128 137 145 154 159 160 159 163 167 168 169 167 164 159 153 147 145 145 145 146 145
179 178 197 213 203 208 173 143 155 152 144 137 143 120 94 48 32 39 43 83 98 90 84 89 82 98 106 113 121 128 142 156 157 161 164 165 165 168 170 169 168 162 160 157 158 159 159 159 158
200 193 188 197 195 176 159 121 163 163 148 139 148 123 104 68 52 54 66 84 91 87 77 86 74 78 93 101 110 121 132 142 159 169 176 180 180 176 174 170 173 175 177 174 173 173 172 171 173
182 200 197 187 175 165 155 144 165 154 134 133 141 127 106 85 67 49 57 74 78 79 76 83 75 67 67 75 90 109 129 140 148 165 187 189 188 191 187 183 182 182 188 188 186 185 184 183 183
203 191 192 177 168 167 153 145 162 150 137 121 137 131 124 110 58 50 63 71 70 69 67 66 79 87 75 64 56 57 72 101 158 194 219 213 198 197 198 194 193 194 195 197 196 196 194 192 192
245 169 158 172 170 160 145 134 104 138 115 86 142 143 137 114 64 75 73 67 61 53 48 48 48 48 63 90 62 41 42 18 266 232 240 237 215 207 203 209 203 205 204 205 205 203 201 199 196
232 196 165 165 170 147 148 147 112 94 116 96 67 64 96 106 115 103 86 70 57 45 33 31 30 23 16 1 3 245 187 238 240 212 208 225 225 219 210 214 205 213 214 212 212 209 205 202 197
213 179 145 110 122 138 141 138 137 150 136 120 110 98 103 113 113 97 80 63 50 38 28 22 18 7 357 342 311 276 258 241 247 243 230 236 241 237 243 199 210 217 219 216 214 214 208 216 209
106 111 123 105 90 123 131 122 146 165 148 143 140 132 125 119 107 95 78 57 40 31 24 15 6 0 351 336 322 305 285 267 256 256 253 253 249 242 239 226 208 216 217 220 210 213 219 223 221
110 93 98 103 91 99 121 129 116 97 102 103 124 133 137 129 110 97 75 44 27 19 13 5 358 356 348 332 319 302 289 280 274 263 260 258 252 250 246 240 235 231 228 230 228 232 229 231 229
103 104 85 86 90 89 105 108 106 106 101 113 125 138 138 126 109 78 55 32 16 8 359 354 352 348 342 330 313 302 288 284 280 271 260 255 253 252 248 248 243 240 241 237 238 237 235 235 236
113 108 98 72 82 70 99 104 119 121 124 131 136 137 133 124 119 102 50 22 5 356 348 345 347 344 336 328 317 304 293 284 283 283 275 263 256 254 254 251 249 247 245 243 242 243 239 236 238
125 118 98 58 60 68 152 125 148 142 154 151 148 140 133 108 104 41 16 3 350 346 343 342 340 340 335 327 319 309 301 293 285 279 280 275 267 258 254 253 251 251 251 247 246 244 244 241 238
142 144 123 61 27 15 236 176 151 165 181 183 178 176 172 95 359 7 356 347 345 342 343 343 338 335 333 328 317 309 307 303 296 291 280 272 268 262 252 251 251 254 252 249 247 245 243 242 240
139 143 132 113 35 346 231 190 172 189 205 211 209 212 218 230 262 330 335 336 340 342 340 340 339 332 328 321 310 307 306 307 302 296 296 291 279 271 259 253 252 251 249 246 247 247 245 247 246
149 143 144 138 30 296 226 222 210 208 220 229 226 226 227 234 242 278 311 326 332 337 338 337 335 332 326 317 310 304 302 308 305 302 305 301 290 279 268 260 256 249 245 244 244 248 245 248 249
130 140 130 71 20 302 245 250 245 226 225 229 228 226 228 233 237 254 289 312 320 332 335 334 331 332 328 321 313 306 306 311 310 317 319 307 297 287 273 268 260 251 245 246 246 248 247 244 242
121 126 111 86 29 313 284 270 256 232 229 232 232 229 228 230 228 234 261 292 309 321 327 323 324 324 323 319 316 301 301 301 306 307 309 310 305 297 281 273 268 260 253 247 244 245 249 249 234
77 95 100 32 346 183 298 262 225 216 227 233 235 235 232 231 236 237 248 274 298 311 321 319 318 317 318 316 304 293 282 278 284 293 297 303 302 296 289 280 272 270 263 257 251 246 246 249 241
92 54 82 322 284 327 330 283 243 216 233 230 228 225 230 229 235 243 249 264 284 302 311 307 310 313 314 307 293 292 289 290 297 299 297 300 297 296 295 290 282 276 272 267 259 250 249 250 245
89 95 112 177 245 262 207 257 262 208 241 234 229 230 234 234 238 243 250 262 275 291 301 302 305 308 309 301 294 288 282 286 290 291 293 296 296 298 300 293 285 281 278 277 273 264 254 251 250
140 151 134 163 227 245 208 239 265 213 231 240 235 238 241 243 246 251 253 257 265 278 292 299 300 306 309 302 294 288 286 287 290 292 293 293 295 304 308 298 290 287 282 280 278 272 261 255 255
235 221 206 204 218 232 136 243 256 257 239 253 264 260 253 250 249 250 251 254 260 268 278 287 293 297 300 296 295 290 283 282 283 290 292 294 298 303 309 308 303 299 294 289 284 276 271 263 260
30 317 314 288 285 301 201 244 258 297 273 266 267 267 265 255 250 252 255 257 258 262 266 274 283 288 290 289 292 291 286 283 285 288 289 290 294 297 306 309 306 305 303 296 290 283 277 272 265
158 99 7 332 317 274 253 268 280 226 236 239 247 251 255 256 253 256 257 257 258 257 258 265 273 280 284 286 286 286 285 280 282 283 281 283 285 293 299 299 299 307 308 302 296 281 272 266 262
354 132 185 228 278 280 272 253 250 229 227 229 246 257 267 266 262 259 255 255 256 255 256 258 264 272 279 282 282 283 285 285 283 278 277 277 280 284 289 292 292 298 302 297 286 280 281 274 272
167 182 206 223 278 281 291 276 204 244 289 283 278 283 285 280 273 264 259 257 254 252 251 253 258 265 271 275 275 277 281 283 281 277 282 283 282 282 282 283 285 290 293 289 279 275 272 262 263
242 223 205 235 229 240 274 276 105 256 285 286 288 293 290 285 278 270 263 257 251 250 250 252 254 256 260 265 266 269 273 275 276 279 284 286 282 284 283 284 282 286 286 282 273 266 261 257 258